Location: Caltech
(34.1382°N, 118.1253°W)
Time: 08:22:07
(UTC-07:00)

Iridium 21 - Visible Passes

Search period start: 25 July 2014 00:00
Search period end: 04 August 2014 00:00
Orbit: 776 x 779 km, 86.4° (Epoch: 24 July)

Date Brightness Start Highest point End Pass type
(mag) Time Alt. Az. Time Alt. Az. Time Alt. Az.
25 Jul 8.0 00:07:14 13° NE 00:07:14 13° NE 00:08:11 10° NE visible
25 Jul 7.3 01:47:42 26° NNW 01:47:42 26° NNW 01:50:09 10° NNW visible
26 Jul 7.2 01:14:19 30° N 01:14:19 30° N 01:16:52 10° N visible
27 Jul 7.4 00:40:56 25° NNE 00:40:56 25° NNE 00:43:11 10° NNE visible
27 Jul 8.0 02:21:24 12° NW 02:21:24 12° NW 02:22:09 10° NW visible
28 Jul 7.8 00:07:32 17° NE 00:07:32 17° NE 00:09:03 10° NNE visible
28 Jul 7.7 01:48:00 19° NW 01:48:00 19° NW 01:49:54 10° NNW visible
29 Jul 7.4 01:14:36 26° NNW 01:14:36 26° NNW 01:16:52 10° N visible
30 Jul 7.4 00:41:12 26° N 00:41:12 26° N 00:43:26 10° N visible
31 Jul 7.6 00:07:47 20° NNE 00:07:47 20° NNE 00:09:35 10° NNE visible
31 Jul 8.0 01:48:15 14° NW 01:48:15 14° NW 01:49:22 10° NNW visible
31 Jul 8.0 23:34:22 13° NE 23:34:22 13° NE 23:35:10 10° NE visible
01 Aug 7.7 01:14:50 21° NNW 01:14:50 21° NNW 01:16:44 10° NNW visible
02 Aug 7.5 00:41:25 25° N 00:41:25 25° N 00:43:31 10° N visible
03 Aug 7.6 00:07:59 23° NNE 00:07:59 23° NNE 00:09:55 10° NNE visible
03 Aug 7.8 23:34:33 17° NE 23:34:33 17° NE 23:35:54 10° NNE visible
